User: anonymous   Login
Location: Coleman
(45.0650°N, 88.0340°W)
Time: 10:27:17
(UTC-05:00)
Language:

Iridium 97 - Orbit

View from above orbital plane
View from above orbital plane
View from above satellite
View from above satellite

Ground track
Ground track

The orbit data is extracted from the following two-line orbital elements,

1 27450U 02031A   18109.31473556  .00000169  00000-0  48681-4 0  9994
2 27450  86.4285 190.9679 0002216  99.1683 260.9766 14.38603862834126
Epoch (UTC): 19 April 2018 07:33:13
Eccentricity: 0.0002216
inclination: 86.4285°
perigee height: 761 km
apogee height: 765 km
right ascension of ascending node: 190.9679°
argument of perigee: 99.1683°
revolutions per day: 14.38603862
mean anomaly at epoch: 260.9766°
orbit number at epoch: 83412

The dashed part of the orbit path shows where the satellite is in the earth's shadow,  

DLR